Millbury, Ohio, United States (43447)
Lat: 41.57N, Lon: 83.42W
Wx Zone: OHZ006
Local Info
Past Weather Observations for Today

NOTE: This archive is for the closest National Weather Service station to Millbury. Information may differ from the station used for current weather conditions.

Time Weather Temperature Dewpoint Humidity Pressure Winds Precip Visibility
20:53
Clear
46°F / 8°C 23°F / -5°C 40% 29.92 in
(1013 mb)
E 12.7 mph
(E 20 kph)
- 10SM
19:53
Clear
45°F / 7°C 25°F / -4°C 46% 29.95 in
(1014 mb)
E 12.7 mph
(E 20 kph)
- 10SM
18:53
Partly Cloudy
45°F / 7°C 28°F / -2°C 53% 29.98 in
(1015 mb)
E 11.5 mph
(E 19 kph)
0.00 in
(0.00 mm)
10SM
17:53
Overcast
48°F / 9°C 21°F / -6°C 34% 30.01 in
(1016 mb)
ENE 12.7 mph
(ENE 20 kph)
- 10SM
16:53
Overcast
50°F / 10°C 21°F / -6°C 32% 30.04 in
(1017 mb)
E 11.5 mph
(E 19 kph)
- 10SM
15:53
Partly Cloudy
52°F / 11°C 21°F / -6°C 30% 30.04 in
(1017 mb)
ENE 15 mph
(ENE 24 kph)
- 10SM
14:53
Clear
54°F / 12°C 27°F / -3°C 35% 30.06 in
(1018 mb)
ENE 11.5 mph
(ENE 19 kph)
- 10SM
13:53
Clear
55°F / 13°C 25°F / -4°C 31% 30.09 in
(1019 mb)
ENE 10.4 mph
(ENE 17 kph)
- 10SM
12:53
Partly Cloudy
54°F / 12°C 19°F / -7°C 26% 30.09 in
(1019 mb)
E 12.7 mph
(E 20 kph)
- 10SM
11:53
Overcast
54°F / 12°C 19°F / -7°C 26% 30.12 in
(1020 mb)
E 15 mph
(E 24 kph)
- 10SM
10:53
Partly Cloudy
52°F / 11°C 19°F / -7°C 28% 30.15 in
(1021 mb)
SE 12.7 mph
(SE 20 kph)
- 10SM
09:53
Mostly Cloudy
50°F / 10°C 19°F / -7°C 30% 30.18 in
(1022 mb)
E 15 mph
(E 24 kph)
- 10SM
08:53
Overcast
46°F / 8°C 18°F / -8°C 32% 30.18 in
(1022 mb)
SE 10.4 mph
(SE 17 kph)
- 10SM
07:53
Overcast
45°F / 7°C 23°F / -5°C 42% 30.18 in
(1022 mb)
ESE 10.4 mph
(ESE 17 kph)
- 10SM
06:53
Overcast
45°F / 7°C 27°F / -3°C 49% 30.18 in
(1022 mb)
E 6.9 mph
(E 11 kph)
- 10SM
05:53
Clear
43°F / 6°C 28°F / -2°C 57% 30.18 in
(1022 mb)
E 4.6 mph
(E 7 kph)
- 10SM
04:53
Overcast
43°F / 6°C 28°F / -2°C 57% 30.15 in
(1021 mb)
E 4.6 mph
(E 7 kph)
- 10SM
03:53
Mostly Cloudy
43°F / 6°C 30°F / -1°C 61% 30.15 in
(1021 mb)
E 6.9 mph
(E 11 kph)
- 10SM
02:53
Partly Cloudy
43°F / 6°C 32°F / 0°C 66% 30.12 in
(1020 mb)
E 4.6 mph
(E 7 kph)
- 10SM
01:53
Clear
45°F / 7°C 30°F / -1°C 57% 30.12 in
(1020 mb)
SE 5.8 mph
(SE 9 kph)
- 10SM
00:53
Clear
45°F / 7°C 30°F / -1°C 57% 30.12 in
(1020 mb)
SE 5.8 mph
(SE 9 kph)
- 10SM
Time Weather Temperature Dewpoint Humidity Pressure Winds Precip Visibility


Weather for websites

WeatherForYou.com, LLC is not responsible for any damages or problems caused by this service. Current weather conditions are obtained from the closest station including government and personal stations which may have varying degrees of accuracy. Weather forecasts are derived from the NOAA NDFD. Like all things, this site belongs to Jesus Christ... He just trusts me to maintain it. If you have any questions or comments email webmaster@weatherforyou.com

Copyright © 2014, WeatherForYou.com LLC. All rights reserved.